Regional Weather Roundup
Issued by NWS

Home | Current Version | Previous Version | Text Only | Print | Product List | Glossary Off
Versions: 1 2 3 4 5 6 7 8 9 10 11 12 13 14 15 16 17 18 19 20 21 22 23 24 25 26 27 28 29 30 31 32 33 34 35 36 37 38 39 40 41 42 43 44 45 46 47 48 49 50

962
ASUS44 KLIX 231805
RWRLA
LOUISIANA WEATHER ROUNDUP
NATIONAL WEATHER SERVICE NEW ORLEANS LA
100 PM CDT THU OCT 23 2014

NOTE: "FAIR" INDICATES FEW OR NO CLOUDS BELOW 12,000 FEET WITH NO
      SIGNIFICANT WEATHER AND/OR OBSTRUCTIONS TO VISIBILITY.
      SKY/WX - SKY CONDITION AND SIGNIFICANT WEATHER.
      TMP - AIR TEMPERATURE.    DP   - DEWPOINT TEMPERATURE.
      RH  - RELATIVE HUMIDITY.  PRES - PRESSURE.
      HX  - HEAT INDEX.         WCI  - WIND CHILL INDEX.

*  THESE STATIONS ARE NOT NWS OR FAA STATIONS AND ARE NOT UNDER
   NWS QUALITY CONTROL.

LAZ040-048-061>063-065-066-069-231900-
SOUTHEAST LOUISIANA

CITY           SKY/WX    TMP DP  RH WIND       PRES   REMARKS
N.O. AUDUBON     N/A     75 N/A N/A MISG        N/A
N.O. INTL ARPT MOSUNNY   72  47  40 NE13      30.08F
6HR MIN TEMP:  61; 6HR MAX TEMP:  72;

N.O. LAKEFRONT SUNNY     72  46  39 NE13      30.08F
6HR MIN TEMP:  62; 6HR MAX TEMP:  72; 6HR PCP: TRACE;

N.O. DOWNTOWN* FAIR      73  43  33 NE7       30.08F
6HR MIN TEMP:  61; 6HR MAX TEMP:  73;

SLIDELL        SUNNY     72  45  37 N8G16     30.08F
6HR MIN TEMP:  45; 6HR MAX TEMP:  73;

BATON ROUGE    MOSUNNY   73  45  36 N8        30.10F
6HR MIN TEMP:  49; 6HR MAX TEMP:  73;

BOOTHVILLE     SUNNY     74  59  59 NE10      30.06F
6HR MIN TEMP:  69; 6HR MAX TEMP:  74;

BELLE CHASSE   MOSUNNY   73  47  39 E10       30.07F
6HR MIN TEMP:  56; 6HR MAX TEMP:  74;

BOGALUSA*        N/A     74  43  33 E6        30.10F
6HR MIN TEMP:  44; 6HR MAX TEMP:  74;

NEW ROADS*     FAIR      71  46  41 N7        30.11F
6HR MIN TEMP:  50; 6HR MAX TEMP:  72;

GONZALES*      FAIR      72  47  40 NE5       30.09F
6HR MIN TEMP:  50; 6HR MAX TEMP:  73;

HAMMOND*       SUNNY     75  41  29 N6        30.10F
HOUMA*         SUNNY     75  52  43 NE9       30.07F
PORT FOURCHON* CLEAR     73  55  53 NE12      30.10F

$$

LAZ041-044-053-054-231900-
SOUTHWEST LOUISIANA

CITY           SKY/WX    TMP DP  RH WIND       PRES   REMARKS
LAKE CHARLES   PTSUNNY   72  51  47 N9        30.11F
6HR MIN TEMP:  54; 6HR MAX TEMP:  74;

LAFAYETTE      SUNNY     74  48  39 NE9       30.10F
6HR MIN TEMP:  51; 6HR MAX TEMP:  74;

PATTERSON      SUNNY     73  54  49 NE9       30.11F
6HR MIN TEMP:  54; 6HR MAX TEMP:  73;

SALT POINT       N/A     75  51  43 N5        30.07F
6HR MIN TEMP:  57; 6HR MAX TEMP:  75;

NEW IBERIA     SUNNY     75  49  39 NE8       30.10F
6HR MIN TEMP:  55; 6HR MAX TEMP:  75;

CHENAULT AIRPK PTSUNNY   70  52  52 VRB3      30.13F

$$

LAZ027-028-231900-
CENTRAL LOUISIANA

CITY           SKY/WX    TMP DP  RH WIND       PRES   REMARKS
FORT POLK      CLOUDY    66  51  60 VRB3      30.12F
6HR MIN TEMP:  53; 6HR MAX TEMP:  66;

ALEXANDRIA INT CLOUDY    67  49  52 VRB5      30.13F
6HR MIN TEMP:  49; 6HR MAX TEMP:  68;

ALEXANDRIA     CLOUDY    65  50  58 CALM      30.15F
6HR MIN TEMP:  46; 6HR MAX TEMP:  65;


$$

LAZ001-002-231900-
NORTHWEST LOUISIANA

CITY           SKY/WX    TMP DP  RH WIND       PRES   REMARKS
SHREVEPORT     CLOUDY    64  50  60 N3        30.16F
6HR MIN TEMP:  56; 6HR MAX TEMP:  64;

BARKSDALE AFB  CLOUDY    61  50  65 N3        30.17F
6HR MIN TEMP:  54; 6HR MAX TEMP:  61;

DTN SHREVEPORT CLOUDY    62  51  67 CALM      30.17F
6HR MIN TEMP:  54; 6HR MAX TEMP:  62;


$$

LAZ014-016-231900-
NORTHEAST LOUISIANA

CITY           SKY/WX    TMP DP  RH WIND       PRES   REMARKS
MONROE         CLOUDY    63  48  58 CALM      30.18F
TALLULAH       PTSUNNY   67  45  45 SE6       30.15F

$$




USA.gov is the U.S. government's official web portal to all federal, state and local government web resources and services.